Regional Weather Roundup
Issued by NWS

Home | Current Version | Previous Version | Graphics & Text | Print | Product List | Glossary Off
Versions: 1 2 3 4 5 6 7 8 9 10 11 12 13 14 15 16 17 18 19 20 21 22 23 24 25 26 27 28 29 30 31 32 33 34 35 36 37 38 39 40 41 42 43 44 45 46 47 48 49 50

000
ASUS43 KMKX 180459
RWRWI

WISCONSIN REGIONAL WEATHER ROUNDUP
NATIONAL WEATHER SERVICE MILWAUKEE/SULLIVAN WI
1100 PM CST SUN DEC 17 2017

NOTE: "FAIR" INDICATES FEW OR NO CLOUDS BELOW 12,000 FEET WITH NO
SIGNIFICANT WEATHER AND/OR OBSTRUCTIONS TO VISIBILITY.

WIZ001-002-006>008-014>016-023>028-180600-
NORTHWEST WISCONSIN

CITY           SKY/WX    TMP DP  RH WIND       PRES   REMARKS
SUPERIOR ARPT  CLOUDY    26  22  85 SW8       29.94S WCI  18
ASHLAND        CLOUDY    27  23  85 SW10      29.92F WCI  17
HAYWARD        CLOUDY    27  24  89 SW6       29.92S WCI  20
SIREN          CLOUDY    26  24  95 SW5       29.94S FOG     WCI  20
CUMBERLAND     CLOUDY    27  25  93 SW6       29.93F FOG     WCI  20
RICE LAKE      CLOUDY    27  27  98 CALM      29.95F FOG
CHETEK         CLOUDY    27  26  98 SW3       29.94F
LADYSMITH      CLOUDY    28  27  97 S3        29.94F FOG
EAU CLAIRE     NOT AVBL
MENOMONIE      CLOUDY    27  26  96 S3        29.96S FOG
NEW RICHMOND   CLOUDY    26  24  94 S7        29.95F FOG     WCI  18
OSCEOLA        CLOUDY    27  27 100 S5        29.98F WCI  21
$$

WIZ003>005-009-010-017-018-180600-
NORTH CENTRAL WISCONSIN

CITY           SKY/WX    TMP DP  RH WIND       PRES   REMARKS
MANITOWISH WTR CLOUDY    25  25 100 SW6       29.90F WCI  18
ARBOR VITAE    CLOUDY    27  26  96 CALM      29.90F FOG
WOODRUFF       CLOUDY    27  26  96 CALM      29.90F FOG
RHINELANDER    CLOUDY    26  26 100 SW6       29.90F FOG     WCI  19
EAGLE RIVER    CLOUDY    26  26 100 W5        29.90S FOG     WCI  20
LAND O LAKES   CLOUDY    26  26  98 SW6       29.91S FOG     WCI  20
PHILLIPS       CLOUDY    25  25 100 SW5       29.91F FOG     WCI  19
TOMAHAWK       CLOUDY    25  24  96 CALM      29.92F FOG
MEDFORD        FOG       26  25  97 SW3       29.91F VSB 3/4
MERRILL        FOG       27  27 100 CALM      29.93F VSB 3/4
$$

WIZ029-030-035-036-043>047-180600-
CENTRAL WISCONSIN

CITY           SKY/WX    TMP DP  RH WIND       PRES   REMARKS
WAUSAU         LGT SNOW  27  26  96 NW5       29.91F FOG     WCI  22
MOSINEE        NOT AVBL
MARSHFIELD     FOG       28  27  96 W5        29.91F VSB 1/4 WCI  23
STEVENS POINT  FOG       26  26 100 CALM      29.95S VSB 1/4
WAUPACA        CLOUDY    30  27  89 CALM      29.96F FOG
WAUTOMA        CLOUDY   N/A N/A N/A CALM      29.96
WISC RAPIDS    FOG       29  27  92 CALM      29.96S VSB 3/4
CAMP DOUGLAS   NOT AVBL
$$

WIZ011>013-019>022-031-037>040-048>050-180600-
NORTHEAST WISCONSIN

CITY           SKY/WX    TMP DP  RH WIND       PRES   REMARKS
ANTIGO         FOG       26  26 100 SW5       29.91F VSB 1/2 WCI  20
SHAWANO        FOG       30  28  94 CALM      29.95F VSB 1/4
OCONTO         CLOUDY    28  28  99 CALM      29.96F VSB 1/2
STURGEON BAY   CLOUDY    29  29 100 W5        29.95F FOG     WCI  24
GREEN BAY      CLOUDY    30  27  88 W5        29.96F FOG     WCI  25
MANITOWOC      CLOUDY    30  29  96 W5        29.96F FOG     WCI  25
APPLETON       CLOUDY    28  28 100 CALM      29.94S FOG
CLINTONVILLE   NOT AVBL
OSHKOSH        CLOUDY    30  28  92 S3        29.95S FOG
$$

WIZ032>034-041-042-053>061-180600-
SOUTHWEST WISCONSIN

CITY           SKY/WX    TMP DP  RH WIND       PRES   REMARKS
LA CROSSE      CLOUDY    32  28  85 SW6       29.97S WCI  26
SPARTA         CLOUDY    30  28  95 CALM      29.97R FOG
VIROQUA        CLOUDY    30  30 100 CALM      29.93F
BOSCOBEL       CLOUDY    33  30  88 CALM      29.98S
PRAIRIE DU CHI CLOUDY    32  29  88 CALM      29.97F FOG
PLATTEVILLE    MOCLDY    33  33 100 CALM      29.97R
$$

WIZ056-057-062-063-064-067-068-180600-
SOUTH CENTRAL WISCONSIN

CITY           SKY/WX    TMP DP  RH WIND       PRES   REMARKS
REEDSBURG      CLOUDY    31  31  99 N3        29.96R FOG
BARABOO/DELLS  CLOUDY    31  29  94 CALM      29.95R FOG
LONE ROCK      CLOUDY    33  31  92 CALM      29.96F FOG
MINERAL POINT  MOCLDY    34  34 100 S3        29.94S FOG
MADISON        CLOUDY    32  30  92 SE6       29.96S FOG     WCI  26
MIDDLETON      CLOUDY    33  32  93 CALM      29.96S
WATERTOWN      CLOUDY    31  31 100 CALM      29.95S FOG
MONROE         CLOUDY    32  32 100 S5        29.94F FOG     WCI  27
JANESVILLE     CLOUDY    34  34 100 CALM      29.95F FOG
$$

WIZ051-052-058>065-066-070>072-180600-
SOUTHEAST WISCONSIN

CITY           SKY/WX    TMP DP  RH WIND       PRES   REMARKS
MILWAUKEE      CLOUDY    35  32  88 SW3       29.97R FOG
WAUKESHA       CLOUDY    32  30  93 CALM      29.96F FOG
MILWAUKEE/TIMM CLOUDY    32  30  93 CALM      29.97F FOG
RACINE         CLOUDY    35  32  88 CALM      29.99S FOG
BURLINGTON     CLOUDY    45  45 100 CALM      29.97S FOG
KENOSHA        CLOUDY    35  31  85 CALM      29.97F FOG
FOND DU LAC    CLOUDY    31  27  85 CALM      29.96S FOG
SHEBOYGAN      CLOUDY    30  30 100 W3        29.96R FOG
WEST BEND      CLOUDY    32  32 100 CALM      29.95S FOG
JUNEAU         FOG       30  29  99 CALM      29.96R VSB<1/4
$$

LSZ147-162-180600-
LAKE SUPERIOR

STATION/POSITION TIME  TEMP    WIND        PRES    WAVE
                       AIR SEA DIR/SP/G            HT/PER
                 (UTC) (F)     (DEG/KT/KT) (MB)    (FT/S)
DEVILS ISLAND    0400   29     220/ 14/ 18 1013.7F
SAXON HARBOR     0430   28                 1013.2S
$$

LMZ867-665-643>646-180600-
LAKE MICHIGAN

STATION/POSITION TIME  TEMP    WIND        PRES    WAVE
                       AIR SEA DIR/SP/G            HT/PER
                 (UTC) (F)     (DEG/KT/KT) (MB)    (FT/S)
NORTHPORT PIER   0440   32      CALM  /  3 1014.2F
KEWAUNEE LAKESHO 0430   30     280/  4/  6 1013.8F
SHEBOYGAN LAKESH 0400   31     280/  7/  8 1015.2F
PORT WASHINGTON  0430   32     360/  2/  4 1015.2F
MILWAUKEE LAKESH 0430   34     270/  3/  4   N/A
KENOSHA   LAKESH 0400   35      CALM  /  1 1015.6
$$

TC  - TEMPERATURE IN CELSIUS
VSB - VISIBILITY IN STATUTE MILES
WCI - WIND CHILL INDEX
HX  - HEAT INDEX




USA.gov is the U.S. government's official web portal to all federal, state and local government web resources and services.